Location: Haliburton Scout Reserve
(45.0900°N, 78.3200°W)
Time: 07:44:18
(UTC-04:00)

LilacSat-2 - Visible Passes

Search period start: 05 October 2024 00:00
Search period end: 15 October 2024 00:00
Orbit: 469 x 483 km, 97.5° (Epoch: 05 October)

Date Brightness Start Highest point End Pass type
(mag) Time Alt. Az. Time Alt. Az. Time Alt. Az.
06 Oct ? 19:53:39 10° SW 19:56:12 19° W 19:58:46 10° NW visible
07 Oct ? 19:25:44 10° SSW 19:29:03 39° W 19:32:25 10° NNW visible
08 Oct ? 06:50:35 10° ENE 06:52:15 13° E 06:53:54 10° ESE visible
09 Oct ? 20:06:30 10° WSW 20:08:23 14° W 20:10:15 10° WNW visible
10 Oct ? 19:37:57 10° SSW 19:41:02 28° W 19:44:09 10° NW visible
11 Oct ? 19:10:15 10° S 19:13:45 63° W 19:17:18 10° NNW visible
13 Oct ? 19:49:50 10° SW 19:52:34 21° W 19:55:20 10° NW visible
14 Oct ? 19:21:42 10° S 19:25:05 44° W 19:28:32 10° NNW visible
